Date String (YYYY-MM-DD hh:mm:ss) UTC,Instrument flags,absolute air pressure of the measurement (hPa),sample flow rate (lpm),inlet stack bypass flow (lpm),air temperature of the measurement (°C),ambient temperature measured by the external sensor (°C),aerosol sample conditioner tube jacket temperature (°C),OPC LED temperature (°C),internal box temperature (°C),relative humidity of the measurement (%),span deviation,mass concentration of particles derived from Lorenz-Mie calculation of OPC scattering (μg/m³),mass concentration of particles derived from Lorenz-Mie calculation of OPC scattering (μg/m³),mass concentration of particles derived from Lorenz-Mie calculation of OPC scattering (μg/m³)
DateTimeUTC,F1_M11,P_M11,Q1_M11,Q2_M11,T1_M11,T2_M11,T3_M11,T4_M11,T5_M11,U1_M11,ZSPAN_M11,X2_M11,X0_M11,X1_M11
2024-05-21 09:00:00,SystemResetWarning,0823.7,5.02,000.00,028.4,027.6,000.0,037.0,030.2,021.9,0000.0,0002.55,0007.23,0002.04
2024-05-21 09:01:00,SystemResetWarning,0823.7,5.01,000.00,028.4,027.6,000.0,036.9,030.2,021.9,0000.0,0002.53,0007.11,0002.07
2024-05-21 09:02:00,SystemResetWarning,0823.7,4.99,000.00,028.4,027.6,000.0,036.9,030.2,022.0,0000.0,0002.53,0006.41,0002.09
2024-05-21 09:03:00,SystemResetWarning,0823.7,4.99,000.00,028.4,027.6,000.0,036.9,030.2,022.0,0000.0,0002.57,0005.34,0002.12
2024-05-21 09:04:00,SystemResetWarning,0823.7,5.01,000.00,028.4,027.6,000.0,036.9,030.2,022.0,0000.0,0002.55,0005.27,0002.14
2024-05-21 09:05:00,SystemResetWarning,0823.7,5.01,000.00,028.4,027.6,000.0,036.9,030.2,021.9,0000.0,0002.56,0005.50,0002.18
2024-05-21 09:06:00,SystemResetWarning,0823.7,5.00,000.00,028.4,027.6,000.0,036.9,030.1,021.9,0000.0,0002.57,0005.69,0002.21
2024-05-21 09:07:00,SystemResetWarning,0823.7,5.00,000.00,028.4,027.5,000.0,036.9,030.1,021.8,0000.0,0002.55,0005.59,0002.22
2024-05-21 09:08:00,SystemResetWarning,0823.7,5.00,000.00,028.4,027.5,000.0,036.9,030.1,021.7,0000.0,0002.53,0005.58,0002.22
2024-05-21 09:09:00,SystemResetWarning,0823.7,5.00,000.00,028.4,027.5,000.0,036.9,030.1,021.7,0000.0,0002.59,0005.00,0002.24
2024-05-21 09:10:00,SystemResetWarning,0823.7,5.00,000.00,028.3,027.5,000.0,036.9,030.1,021.8,0000.0,0002.62,0005.07,0002.26
2024-05-21 09:11:00,SystemResetWarning,0823.7,5.01,000.00,028.3,027.5,000.0,036.9,030.1,021.9,0000.0,0002.64,0004.97,0002.28
2024-05-21 09:12:00,SystemResetWarning,0823.7,5.01,000.00,028.3,027.4,000.0,036.9,030.1,021.9,0000.0,0002.69,0004.99,0002.32
2024-05-21 09:13:00,SystemResetWarning,0823.7,4.99,000.00,028.3,027.4,000.0,036.8,030.0,022.0,0000.0,0002.73,0005.03,0002.36
2024-05-21 09:14:00,SystemResetWarning,0823.7,4.99,000.00,028.3,027.4,000.0,036.8,030.0,022.0,0000.0,0002.75,0005.00,0002.40
2024-05-21 09:15:00,SystemResetWarning,0823.7,4.99,000.00,028.3,027.4,000.0,036.8,030.0,022.0,0000.0,0002.82,0005.14,0002.44
2024-05-21 09:16:00,SystemResetWarning,0823.7,5.00,000.00,028.2,027.4,000.0,036.8,030.0,022.1,0000.0,0002.84,0004.76,0002.46
2024-05-21 09:17:00,SystemResetWarning,0823.7,5.00,000.00,028.2,027.4,000.0,036.8,030.0,022.1,0000.0,0002.89,0004.72,0002.48
2024-05-21 09:18:00,SystemResetWarning,0823.7,4.99,000.00,028.2,027.4,000.0,036.8,030.0,022.1,0000.0,0002.93,0004.78,0002.51
2024-05-21 09:19:00,SystemResetWarning,0823.6,5.01,000.00,028.2,027.4,000.0,036.8,030.0,022.2,0000.0,0002.95,0004.34,0002.53
2024-05-21 09:20:00,SystemResetWarning,0823.6,5.01,000.00,028.2,027.4,000.0,036.8,030.0,022.2,0000.0,0002.93,0003.66,0002.55
2024-05-21 09:21:00,SystemResetWarning,0823.6,4.99,000.00,028.2,027.3,000.0,036.8,030.0,022.2,0000.0,0002.90,0003.58,0002.54
2024-05-21 09:22:00,SystemResetWarning,0823.6,5.00,000.00,028.2,027.3,000.0,036.7,030.0,022.3,0000.0,0002.91,0003.64,0002.55
2024-05-21 09:23:00,SystemResetWarning,0823.6,5.00,000.00,028.2,027.4,000.0,036.7,029.9,022.3,0000.0,0002.94,0003.75,0002.54
2024-05-21 09:24:00,SystemResetWarning,0823.7,4.99,000.00,028.2,027.3,000.0,036.7,029.9,022.3,0000.0,0002.95,0003.78,0002.53
2024-05-21 09:25:00,SystemResetWarning,0823.6,5.00,000.00,028.2,027.3,000.0,036.7,029.9,022.3,0000.0,0003.00,0003.92,0002.54
2024-05-21 09:26:00,SystemResetWarning,0823.6,4.99,000.00,028.2,027.3,000.0,036.7,029.9,022.5,0000.0,0002.98,0003.79,0002.54
2024-05-21 09:27:00,SystemResetWarning,0823.6,5.00,000.00,028.2,027.3,000.0,036.7,029.9,022.5,0000.0,0002.95,0003.64,0002.55
2024-05-21 09:28:00,SystemResetWarning,0823.7,5.01,000.00,028.2,027.3,000.0,036.7,029.9,022.6,0000.0,0002.93,0003.48,0002.56
2024-05-21 09:29:00,SystemResetWarning,0823.7,5.01,000.00,028.2,027.3,000.0,036.7,029.9,022.5,0000.0,0002.93,0003.41,0002.58
2024-05-21 09:30:00,SystemResetWarning,0823.7,5.00,000.00,028.2,027.4,000.0,036.7,030.0,022.5,0000.0,0002.93,0003.38,0002.60
2024-05-21 09:31:00,SystemResetWarning,0823.7,4.99,000.00,028.2,027.3,000.0,036.7,029.9,022.4,0000.0,0002.94,0003.36,0002.62
2024-05-21 09:32:00,SystemResetWarning,0823.6,5.01,000.00,028.2,027.3,000.0,036.7,029.9,022.5,0000.0,0002.97,0003.58,0002.66
2024-05-21 09:33:00,SystemResetWarning,0823.6,5.01,000.00,028.1,027.3,000.0,036.6,029.9,022.5,0000.0,0002.97,0003.56,0002.68
2024-05-21 09:34:00,SystemResetWarning,0823.6,5.00,000.00,028.1,027.3,000.0,036.6,029.9,022.5,0000.0,0002.97,0003.50,0002.71
2024-05-21 09:35:00,SystemResetWarning,0823.6,5.00,000.00,028.1,027.3,000.0,036.6,029.9,022.5,0000.0,0003.00,0003.60,0002.74
2024-05-21 09:36:00,SystemResetWarning,0823.6,4.99,000.00,028.1,027.3,000.0,036.6,029.9,022.5,0000.0,0003.02,0003.68,0002.76
2024-05-21 09:37:00,SystemResetWarning,0823.6,5.00,000.00,028.1,027.3,000.0,036.6,029.9,022.5,0000.0,0003.02,0003.68,0002.77
2024-05-21 09:38:00,SystemResetWarning,0823.6,5.00,000.00,028.1,027.3,000.0,036.6,029.9,022.5,0000.0,0003.05,0003.90,0002.79
2024-05-21 09:39:00,SystemResetWarning,0823.7,5.02,000.00,028.1,027.3,000.0,036.6,029.9,022.5,0000.0,0003.09,0005.21,0002.80
2024-05-21 09:40:00,SystemResetWarning,0823.7,5.00,000.00,028.1,027.3,000.0,036.6,029.9,022.5,0000.0,0003.12,0005.57,0002.82
2024-05-21 09:41:00,SystemResetWarning,0823.7,4.99,000.00,028.1,027.3,000.0,036.6,029.9,022.5,0000.0,0003.15,0006.03,0002.84
2024-05-21 09:42:00,SystemResetWarning,0823.7,4.99,000.00,028.1,027.3,000.0,036.6,029.9,022.6,0000.0,0003.17,0006.52,0002.84
2024-05-21 09:43:00,SystemResetWarning,0823.7,4.99,000.00,028.1,027.3,000.0,036.6,029.9,022.6,0000.0,0003.17,0006.41,0002.84
2024-05-21 09:44:00,SystemResetWarning,0823.7,5.00,000.00,028.1,027.3,000.0,036.6,029.9,022.6,0000.0,0003.18,0006.36,0002.85
2024-05-21 09:45:00,SystemResetWarning,0823.7,5.01,000.00,028.1,027.3,000.0,036.6,029.9,022.6,0000.0,0003.18,0006.35,0002.85
2024-05-21 09:46:00,SystemResetWarning,0823.8,4.99,000.00,028.1,027.2,000.0,036.6,029.9,022.7,0000.0,0003.19,0006.34,0002.86
2024-05-21 09:47:00,SystemResetWarning,0823.7,4.99,000.00,028.1,027.2,000.0,036.5,029.8,022.7,0000.0,0003.19,0006.29,0002.86
2024-05-21 09:48:00,SystemResetWarning,0823.7,5.00,000.00,028.1,027.2,000.0,036.5,029.8,022.7,0000.0,0003.20,0006.33,0002.87
2024-05-21 09:49:00,SystemResetWarning,0823.7,5.00,000.00,028.1,027.2,000.0,036.5,029.8,022.6,0000.0,0003.20,0006.17,0002.87
2024-05-21 09:50:00,SystemResetWarning,0823.7,5.02,000.00,028.0,027.2,000.0,036.5,029.8,022.6,0000.0,0003.20,0004.90,0002.88
2024-05-21 09:51:00,SystemResetWarning,0823.6,4.99,000.00,028.0,027.2,000.0,036.5,029.8,022.6,0000.0,0003.20,0004.64,0002.87
2024-05-21 09:52:00,SystemResetWarning,0823.7,5.00,000.00,028.0,027.2,000.0,036.5,029.8,022.7,0000.0,0003.18,0004.23,0002.88
2024-05-21 09:53:00,SystemResetWarning,0823.7,4.99,000.00,028.0,027.2,000.0,036.5,029.8,022.7,0000.0,0003.19,0003.82,0002.89
2024-05-21 09:54:00,SystemResetWarning,0823.6,5.00,000.00,028.0,027.2,000.0,036.5,029.8,022.8,0000.0,0003.19,0003.78,0002.89
2024-05-21 09:55:00,SystemResetWarning,0823.6,5.00,000.00,028.0,027.2,000.0,036.5,029.8,023.0,0000.0,0003.18,0003.74,0002.89
2024-05-21 09:56:00,SystemResetWarning,0823.6,5.00,000.00,028.0,027.2,000.0,036.5,029.8,023.0,0000.0,0003.19,0003.77,0002.88
2024-05-21 09:57:00,SystemResetWarning,0823.6,5.00,000.00,028.0,027.2,000.0,036.5,029.8,023.0,0000.0,0003.17,0003.68,0002.88
2024-05-21 09:58:00,SystemResetWarning,0823.7,5.02,000.00,028.0,027.1,000.0,036.5,029.8,022.9,0000.0,0003.15,0003.58,0002.86
2024-05-21 09:59:00,SystemResetWarning,0823.7,5.00,000.00,028.0,027.1,000.0,036.5,029.8,022.9,0000.0,0003.15,0003.55,0002.86
